This is the latest recevied weather packets stored in our database for station/object GW1479. If no packets are shown the sender has not sent any weather packets the latest 10 day(s).
| Time | Temp. | Humidity | Pressure | Rain* | Wind** | Luminosity | Snow |
|---|---|---|---|---|---|---|---|
| 1777512973 | 15° C | 99% | 1009.4 hPa | 21.59 mm | - | - | - |
| 1777507957 | 16.67° C | 99% | 1008.4 hPa | 21.59 mm | - | - | - |
| 1777507230 | 16.67° C | 99% | 1008.1 hPa | 21.34 mm | - | - | - |
| 1777506139 | 17.22° C | 99% | 1007.4 hPa | 21.08 mm | - | - | - |
| 1777500023 | 18.33° C | 99% | 1006.4 hPa | 17.53 mm | - | - | - |
| 1777497889 | 17.78° C | 99% | 1005.7 hPa | 17.53 mm | - | - | - |
| 1777492106 | 18.89° C | 99% | 1006 hPa | 12.45 mm | - | - | - |
| 1777491380 | 18.33° C | 99% | 1005.7 hPa | 12.45 mm | - | - | - |
| 1777485267 | 20.56° C | 99% | 1007.1 hPa | 11.43 mm | - | - | - |
| 1777481669 | 19.44° C | 99% | 1008.1 hPa | 11.43 mm | - | - | - |
| 1777480578 | 18.89° C | 99% | 1008.4 hPa | 11.43 mm | - | - | - |
| 1777480229 | 18.89° C | 99% | 1008.4 hPa | 11.43 mm | - | - | - |
| 1777477711 | 18.89° C | 99% | 1009.1 hPa | 11.18 mm | - | - | - |
| 1777476262 | 17.78° C | 99% | 1009.1 hPa | 11.18 mm | - | - | - |
| 1777475927 | 17.78° C | 99% | 1009.1 hPa | 11.18 mm | - | - | - |
| 1777474460 | 16.67° C | 99% | 1010.1 hPa | 11.18 mm | - | - | - |
| 1777469809 | 16.67° C | 99% | 1010.8 hPa | 8.89 mm | - | - | - |
| 1777469074 | 16.67° C | 99% | 1011.1 hPa | 8.89 mm | - | - | - |
| 1777467288 | 16.11° C | 99% | 1009.4 hPa | 0.25 mm | - | - | - |
| 1777466905 | 16.11° C | 99% | 1009.1 hPa | 0.25 mm | - | - | - |
| 1777465467 | 16.11° C | 99% | 1009.1 hPa | 0 mm | - | - | - |
| 1777464764 | 15.56° C | 99% | 1009.1 hPa | 0 mm | - | - | - |
| 1777464393 | 15.56° C | 99% | 1009.4 hPa | 0 mm | - | - | - |
| 1777462581 | 15° C | 99% | 1010.1 hPa | 0 mm | - | - | - |
| 1777453241 | 15° C | 99% | 1010.8 hPa | 0 mm | - | - | - |
* Rain since midnight (hover to see other rain measurements)
** Current wind speed in m/s (hover to see current wind gust speed)